ToolCenterMain Page | About | Help | FAQ | Special pages | Log in

Printable version | Disclaimers | Privacy policy

Oldest pages

From ToolCenter

Showing below up to 115 results starting with #1.

View (previous 500) (next 500) (20 | 50 | 100 | 250 | 500)

  1. H-Bot ‎(01:56, 28 October 2004)
  2. Splitnotes ‎(00:22, 24 May 2005)
  3. TimeMap ‎(05:33, 12 July 2005)
  4. How to delete spam entries in my echo survey? ‎(23:43, 18 November 2005)
  5. Main Page ‎(22:16, 9 February 2006)
  6. ALG ‎(22:18, 9 February 2006)
  7. Almagest ‎(22:20, 9 February 2006)
  8. Ancient World Mapping Center ‎(22:21, 9 February 2006)
  9. T2K ‎(01:20, 10 February 2006)
  10. Syllabus Finder ‎(01:21, 10 February 2006)
  11. Sophie ‎(01:22, 10 February 2006)
  12. Scholar's Box ‎(01:22, 10 February 2006)
  13. S5 ‎(01:22, 10 February 2006)
  14. NITLE Semantic Engine (NSE) ‎(01:22, 10 February 2006)
  15. Maryland Institute for Technology in the Humanities (MITH) ‎(01:22, 10 February 2006)
  16. Madison Digital Image Database ‎(01:22, 10 February 2006)
  17. METS ‎(01:22, 10 February 2006)
  18. MATRIX ‎(01:22, 10 February 2006)
  19. Keys to History ‎(01:22, 10 February 2006)
  20. Institute for the Future of the Book ‎(01:23, 10 February 2006)
  21. Institute for Advanced Technology in the Humanities ‎(01:23, 10 February 2006)
  22. Musee McCord Museum ‎(01:23, 10 February 2006)
  23. I2K ‎(01:27, 10 February 2006)
  24. Greenstone ‎(01:27, 10 February 2006)
  25. Digital Tools Summit - Exploration of Resources ‎(01:27, 10 February 2006)
  26. Colloquium ‎(01:31, 10 February 2006)
  27. Collaborative Timeline ‎(01:32, 10 February 2006)
  28. D2K ‎(01:32, 10 February 2006)
  29. Current events ‎(01:33, 10 February 2006)
  30. Fall Forum 2004 ‎(01:34, 10 February 2006)
  31. Time Map ‎(01:37, 10 February 2006)
  32. Text Analysis Portal for Research ‎(01:37, 10 February 2006)
  33. TeiPublisher ‎(01:37, 10 February 2006)
  34. VT Survey ‎(01:38, 10 February 2006)
  35. Tool Summit Conclusions ‎(01:38, 10 February 2006)
  36. Web Scrapbook ‎(01:38, 10 February 2006)
  37. Virtual Knowledge Studio for the Humanities and Social Sciences ‎(01:38, 10 February 2006)
  38. Time, Space, Uncertainty ‎(02:05, 11 February 2006)
  39. Edition Production & Presentation Technology (EPPT) ‎(03:37, 3 May 2006)
  40. Introduction ‎(11:34, 28 June 2006)
  41. History of American Education ‎(06:06, 28 January 2007)
  42. QSR International ‎(05:42, 10 March 2007)
  43. Scribe ‎(10:31, 15 May 2007)
  44. Del.icio.us ‎(00:17, 22 May 2007)
  45. Issue Crawler ‎(00:36, 22 May 2007)
  46. Metacombine Project ‎(00:38, 22 May 2007)
  47. Project Pad ‎(00:40, 22 May 2007)
  48. Swish-E ‎(00:43, 22 May 2007)
  49. TextPattern ‎(00:45, 22 May 2007)
  50. Timeline Tool ‎(00:46, 22 May 2007)
  51. Virtual Lightbox ‎(00:47, 22 May 2007)
  52. Virtual Museum ‎(00:47, 22 May 2007)
  53. Webstractor ‎(00:48, 22 May 2007)
  54. Wordpress ‎(00:49, 22 May 2007)
  55. Zotero (aka Firefox Scholar aka SmartFox) ‎(00:49, 22 May 2007)
  56. National Institute for Technology and Liberal Education ‎(00:53, 22 May 2007)
  57. Public Knowledge Project ‎(00:53, 22 May 2007)
  58. Stanford hpsCollaboratory ‎(00:54, 22 May 2007)
  59. Stoa Consortium ‎(00:54, 22 May 2007)
  60. UC Berkeley Interactive University ‎(00:55, 22 May 2007)
  61. Digital tools summit ‎(01:03, 22 May 2007)
  62. Versioning Machine ‎(01:07, 22 May 2007)
  63. Digital Atheneum Project ‎(01:08, 22 May 2007)
  64. Wiki platform ‎(01:09, 22 May 2007)
  65. Musée McCord Museum ‎(01:10, 22 May 2007)
  66. Urban Life Through Two Lenses ‎(01:11, 22 May 2007)
  67. Imaging the French Revolution ‎(01:12, 22 May 2007)
  68. Media Matrix ‎(01:16, 22 May 2007)
  69. Open Conference Systems ‎(01:22, 22 May 2007)
  70. Wikipedia ‎(01:27, 22 May 2007)
  71. Digital Tools Summit - Interpretation ‎(01:29, 22 May 2007)
  72. SCALE ‎(01:32, 22 May 2007)
  73. Virginia Center for Digital History ‎(01:33, 22 May 2007)
  74. Synchrotext ‎(01:40, 22 May 2007)
  75. Hexagon ‎(01:43, 22 May 2007)
  76. Center for History and New Media ‎(17:53, 22 May 2007)
  77. Textile ‎(20:27, 22 May 2007)
  78. Gamera ‎(20:29, 22 May 2007)
  79. Historical Event Markup and Linking ‎(20:33, 22 May 2007)
  80. Bubble Machine ‎(22:22, 22 May 2007)
  81. Collaboration ‎(22:22, 22 May 2007)
  82. Georgia Tech eTV Prototyping Group ‎(22:24, 22 May 2007)
  83. New Media Consortium (NMC) ‎(22:26, 22 May 2007)
  84. Metadata Migrator ‎(22:51, 22 May 2007)
  85. NVivo ‎(22:53, 22 May 2007)
  86. Open Journal Systems ‎(22:55, 22 May 2007)
  87. Open Video Digital Library Toolkit ‎(22:56, 22 May 2007)
  88. Timeline Creator ‎(01:04, 23 May 2007)
  89. Sakai ‎(19:27, 12 June 2007)
  90. Digital Library Federation ‎(21:52, 25 June 2007)
  91. Albers ‎(20:33, 10 July 2007)
  92. Digital Cultures Project ‎(19:41, 13 July 2007)
  93. PrimaryAccess ‎(19:42, 13 July 2007)
  94. HyperPo ‎(19:43, 13 July 2007)
  95. Martus ‎(19:43, 13 July 2007)
  96. National Center for Supercomputing Applications (NCSA) ‎(19:43, 13 July 2007)
  97. Survey Builder ‎(19:44, 13 July 2007)
  98. Association for Documentary Editing ‎(19:44, 13 July 2007)
  99. TK3 ‎(19:44, 13 July 2007)
  100. Streetprint Engine ‎(19:46, 13 July 2007)
  101. Catalyst ‎(19:46, 13 July 2007)
  102. OpenReader ‎(19:46, 13 July 2007)
  103. Temporal Modeling Project ‎(19:47, 13 July 2007)
  104. FEDORA ‎(19:47, 13 July 2007)
  105. Collex ‎(23:24, 18 July 2007)
  106. Ivanhoe ‎(23:26, 18 July 2007)
  107. Juxta ‎(23:28, 18 July 2007)
  108. Networked Interface for Nineteenth Century Electronic Scholarship ‎(23:47, 18 July 2007)
  109. SpecLab ‎(18:33, 19 July 2007)
  110. NINES (Networked Infrastructure for Nineteenth-century Electronic Scholarship) ‎(18:35, 19 July 2007)
  111. ARP (Applied Research in Patacriticism) ‎(18:35, 19 July 2007)
  112. Coalition for Networked Information (CNI) ‎(19:55, 29 August 2007)
  113. Visible Knowledge Project Poster Tool ‎(19:55, 29 August 2007)
  114. Create account ‎(18:20, 8 October 2007)
  115. Pliny ‎(12:28, 1 July 2008)

View (previous 500) (next 500) (20 | 50 | 100 | 250 | 500)


Find

Browse
Main Page
Community
Current events
Recent changes
Random page
Help
My pages
Log in / create account
Special pages
New pages
<imagelist>
Statistics
More...